Location: Kruen
(47.5000°N, 11.5000°E)
Time: 01:46:45
(UTC+01:00)

ISS - Pass Details

Date: 29 September 2020
Orbit: 417 x 420 km, 51.6° (Epoch: 27 October)

Event Time Altitude Azimuth Distance (km) Brightness Sun altitude
Rises 19:27:33 0° 283° (WNW) 2,365 2.3 -6.0°
Reaches altitude 10° 19:29:44 10° 291° (WNW) 1,502 0.5 -6.4°
Maximum altitude 19:32:56 39° 2° (N) 649 -2.8 -6.9°
Drops below altitude 10° 19:36:07 10° 73° (ENE) 1,503 -1.5 -7.5°
Enters shadow 19:36:21 - 74° (ENE) 1,591 -1.4 -7.5°
